Regional Weather Roundup
Issued by NWS Charleston, WV

Home | Current Version | Previous Version | Text Only | Print | Product List | Glossary Off
Versions: 1 2 3 4 5 6 7 8 9 10 11 12 13 14 15 16 17 18 19 20 21 22 23 24 25 26 27 28 29 30 31 32 33 34 35 36 37 38 39 40 41 42 43 44 45 46 47 48 49 50

848
ASUS41 KRLX 091610
RWRRLX
West Virginia Regional Weather Roundup
National Weather Service Charleston WV
1100 AM EST TUE FEB 09 2016

Note: "fair" indicates few or no clouds below 12,000 feet with no
significant weather and/or obstructions to visibility.

WVZ003-091700-
Northern Panhandle of West Virginia

CITY           SKY/WX    TMP DP  RH WIND       PRES   REMARKS
WHEELING       LGT SNOW  25  20  81 SW12G23   29.61R VSB 1
$$

WVZ009-091700-
Northwest West Virginia

CITY           SKY/WX    TMP DP  RH WIND       PRES   REMARKS
PARKERSBURG    LGT SNOW  24  19  81 W9G17     29.73S
$$

WVZ006-091700-
Western West Virginia

CITY           SKY/WX    TMP DP  RH WIND       PRES   REMARKS
HUNTINGTON     FLURRIES  24  13  62 W9G17     29.77S
$$

WVZ015-091700-
West Central West Virginia

CITY           SKY/WX    TMP DP  RH WIND       PRES   REMARKS
CHARLESTON     FLURRIES  25  13  60 W8        29.73F
$$

WVZ022-031-091700-
North Central West Virginia

CITY           SKY/WX    TMP DP  RH WIND       PRES   REMARKS
CLARKSBURG     LGT SNOW  24  19  81 W14G22    29.66S
MORGANTOWN     HVY SNOW  25  20  81 VRB7      29.64R VSB 1/4
$$

WVZ025-035-042-045-091700-
Southern West Virginia

CITY           SKY/WX    TMP DP  RH WIND       PRES   REMARKS
BECKLEY        LGT SNOW  21  14  74 W8        29.62F
LOGAN          LGT SNOW  21  14  73 W12       29.70S WCI   9
BLUEFIELD      LGT SNOW  19  14  81 NW10G21   29.60S WCI   7
LEWISBURG      CLOUDY    27  17  65 NW8G17    29.62S
$$

WVZ047-091700-
Northern Mountains of West Virginia

CITY           SKY/WX    TMP DP  RH WIND       PRES   REMARKS
ELKINS         LGT SNOW  24  15  68 W9G21     29.63R
$$

WVZ052-091700-
Eastern Panhandle of West Virginia

CITY           SKY/WX    TMP DP  RH WIND       PRES   REMARKS
MARTINSBURG    MIX PCPN  36  31  82 W12       29.56S
PETERSBURG     CLOUDY    33  18  54 W14G21    29.61R
$$




USA.gov is the U.S. government's official web portal to all federal, state and local government web resources and services.